Location: Waltman Observatory
(32.5145°N, 90.4450°W)
Time: 11:54:19
(UTC-05:00)

Amateur Radio Satellites - All Passes

Search period start: 24 October 2014 11:24
Search period end: 25 October 2014 11:24
Location: Waltman Observatory, 32.5145°N, 90.4450°W

Satellite Date Start Highest point End Downlink Frequencies (MHz)
Time Altitude Azimuth
UKube-1 24 Oct 11:29:20 11:32:57 26° 289° (WNW) 11:36:34 145.840 MHz, 145.915 MHz
KITSAT 1 24 Oct 11:36:54 11:44:15 40° 108° (ESE) 11:51:37 435.175 FM
ISS 24 Oct 12:07:23 12:10:29 37° 131° (SE) 12:13:35 145.800 FM
PANSAT 24 Oct 12:07:40 12:10:40 22° 198° (SSW) 12:13:41 not established
FUNcube-1 24 Oct 12:08:05 12:11:28 24° 289° (WNW) 12:14:47 145.950 - 145.970 MHz USB
Oscar 10/S400 24 Oct 12:15:17 12:39:37 38° 153° (SSE) 12:56:54 145.825 - 145.975 CW/USB, Beacon 145.810 USB
PCSat 24 Oct 12:26:26 12:29:07 14° 50° (NE) 12:31:47 145.825 MHz
Oscar 16 24 Oct 12:49:47 12:53:26 20° 67° (ENE) 12:57:05 437.025 USB, Beacon 2401.1428
SO-50 24 Oct 13:04:38 13:09:05 90° 286° (WNW) 13:13:40 436.795 FM
JAS-1B 24 Oct 13:10:03 13:15:06 28° 69° (ENE) 13:19:51 435.800 - 435.900 CW/SSB
Uribyol 2 24 Oct 13:10:14 13:12:20 13° 64° (ENE) 13:14:26 436.500 FM
ITAMSAT 1 24 Oct 13:15:47 13:18:12 13° 64° (ENE) 13:20:38 435.822 SSB
KITSAT 1 24 Oct 13:32:08 13:39:33 39° 305° (NW) 13:47:01 435.175 FM
Oscar 19 24 Oct 13:41:36 13:46:42 67° 75° (ENE) 13:51:49 437.125 CW, 437.150 USB
ISS 24 Oct 13:44:55 13:47:16 18° 326° (NW) 13:49:38 145.800 FM
Sapphire 24 Oct 13:45:04 13:50:28 62° 63° (ENE) 13:55:48 437.095 MHz 1200 baud AX-25 AFSK
AO-27 24 Oct 13:58:34 14:03:19 38° 71° (ENE) 14:08:07 436.795 MHz FM
PCSat 24 Oct 14:07:40 14:13:05 75° 247° (WSW) 14:18:27 145.825 MHz
AO-Echo 24 Oct 14:25:59 14:30:49 88° 258° (WSW) 14:35:50 ?
Oscar 16 24 Oct 14:27:38 14:32:27 40° 261° (W) 14:37:17 437.025 USB, Beacon 2401.1428
AO-7 24 Oct 14:29:22 14:32:14 12° 53° (NE) 14:35:05 29.400 - 29.500 MHz
UOSAT-12 24 Oct 14:30:41 14:35:11 59° 115° (ESE) 14:39:47 437.025 FM, 437.400 FM
Uribyol 2 24 Oct 14:46:00 14:51:10 67° 258° (WSW) 14:56:23 436.500 FM
ITAMSAT 1 24 Oct 14:51:58 14:57:06 62° 259° (WSW) 15:02:17 435.822 SSB
JAS-1B 24 Oct 15:00:19 15:05:41 30° 261° (W) 15:10:41 435.800 - 435.900 CW/SSB
Gurwin Techsat 1B 24 Oct 15:09:17 15:14:35 85° 257° (WSW) 15:19:55 435.225 FM
TMSAT-1 24 Oct 15:20:46 15:26:04 90° 231° (SW) 15:31:24 436.925 FM
Oscar 19 24 Oct 15:25:12 15:26:24 11° 268° (W) 15:27:36 437.125 CW, 437.150 USB
Sapphire 24 Oct 15:30:46 15:33:16 13° 257° (WSW) 15:35:46 437.095 MHz 1200 baud AX-25 AFSK
AO-27 24 Oct 15:39:05 15:42:53 20° 265° (W) 15:46:43 436.795 MHz FM
Saudisat 1A 24 Oct 16:08:18 16:11:02 16° 51° (NE) 16:13:45 436.775 MHz
Uosat F 24 Oct 16:10:53 16:15:27 37° 71° (ENE) 16:20:03 435.120 FM
UOSAT-12 24 Oct 16:13:12 16:15:42 14° 311° (NW) 16:18:13 437.025 FM, 437.400 FM
AO-7 24 Oct 16:15:20 16:23:32 71° 70° (ENE) 16:31:45 29.400 - 29.500 MHz
JAS-2 24 Oct 17:01:17 17:06:14 30° 66° (ENE) 17:11:43 435.800 - 435.900 CW/SSB, 435.910 FM
Hamsat 24 Oct 17:35:28 17:39:11 31° 73° (ENE) 17:42:53 145.90 MHz
Saudisat 1A 24 Oct 17:46:35 17:50:48 45° 246° (WSW) 17:54:59 436.775 MHz
Uosat F 24 Oct 17:50:42 17:54:17 20° 265° (W) 17:57:53 435.120 FM
OPAL 24 Oct 17:55:42 18:00:28 46° 102° (ESE) 18:05:11 ?
AO-7 24 Oct 18:11:09 18:16:48 20° 265° (W) 18:22:29 29.400 - 29.500 MHz
JAS-2 24 Oct 18:46:02 18:51:08 33° 265° (W) 18:56:50 435.800 - 435.900 CW/SSB, 435.910 FM
SO-67 24 Oct 19:00:09 19:03:13 31° 75° (ENE) 19:06:18 435.3500 MHz FM
Hamsat 24 Oct 19:12:31 19:15:08 16° 266° (W) 19:17:45 145.90 MHz
OPAL 24 Oct 19:35:56 19:38:55 16° 296° (WNW) 19:41:54 ?
STRAND 1 24 Oct 19:39:33 19:44:39 61° 101° (ESE) 19:49:43 ?
AO-40 24 Oct 20:04:51 22:26:07 42° 205° (SSW) 03:45:03 Beacon 2401.320
ISS 24 Oct 20:15:56 20:19:15 64° 43° (NE) 20:22:33 145.800 FM
RS-15 24 Oct 20:37:38 20:45:03 21° 102° (ESE) 20:52:20 29.354 - 29.394 USB, Beacon 29.352 USB
UKube-1 24 Oct 20:46:53 20:48:01 11° 66° (ENE) 20:49:09 145.840 MHz, 145.915 MHz
HO-68 24 Oct 20:59:44 21:06:48 67° 72° (ENE) 21:13:54 435.675 MHz FM
STRAND 1 24 Oct 21:20:56 21:23:15 13° 295° (WNW) 21:25:34 ?
FUNcube-1 24 Oct 21:25:38 21:27:11 12° 67° (ENE) 21:28:45 145.950 - 145.970 MHz USB
Oscar 11 24 Oct 21:25:41 21:29:23 28° 72° (ENE) 21:33:04 145.825 FM, Beacon 2401.500 USB
KITSAT 1 24 Oct 21:29:42 21:37:28 48° 58° (ENE) 21:45:11 435.175 FM
SO-50 24 Oct 21:40:56 21:44:58 25° 54° (NE) 21:49:01 436.795 FM
ZACube-1 24 Oct 22:13:58 22:18:19 43° 74° (ENE) 22:22:38 437.345 MHz
UKube-1 24 Oct 22:19:27 22:23:41 53° 259° (W) 22:27:57 145.840 MHz, 145.915 MHz
RS-15 24 Oct 22:45:00 22:56:05 80° 298° (WNW) 23:07:03 29.354 - 29.394 USB, Beacon 29.352 USB
HO-68 24 Oct 22:50:18 22:54:54 18° 266° (W) 22:59:33 435.675 MHz FM
FUNcube-1 24 Oct 22:58:32 23:03:03 55° 260° (W) 23:07:32 145.950 - 145.970 MHz USB
Oscar 11 24 Oct 23:02:26 23:05:31 19° 265° (W) 23:08:36 145.825 FM, Beacon 2401.500 USB
UOSAT-12 24 Oct 23:05:48 23:08:48 17° 50° (NE) 23:11:45 437.025 FM, 437.400 FM
SO-50 24 Oct 23:21:12 23:25:30 32° 248° (WSW) 23:29:48 436.795 FM
KITSAT 1 24 Oct 23:25:39 23:32:29 32° 254° (WSW) 23:39:19 435.175 FM
MaSat-1 24 Oct 23:48:31 23:52:48 87° 293° (WNW) 23:56:43 437.345 MHz
ZACube-1 24 Oct 23:52:26 23:54:49 14° 266° (W) 23:57:12 437.345 MHz
UOSAT-12 25 Oct 00:44:41 00:49:12 49° 246° (WSW) 00:53:37 437.025 FM, 437.400 FM
JAS-1B 25 Oct 01:00:17 01:02:00 11° 94° (E) 01:03:46 435.800 - 435.900 CW/SSB
RS-15 25 Oct 01:02:43 01:10:21 21° 322° (NW) 01:18:02 29.354 - 29.394 USB, Beacon 29.352 USB
Oscar 10/S400 25 Oct 01:20:22 02:30:44 25° 245° (WSW) 05:32:35 145.825 - 145.975 CW/USB, Beacon 145.810 USB
Oscar 19 25 Oct 01:58:13 02:02:51 34° 98° (E) 02:07:26 437.125 CW, 437.150 USB
AO-27 25 Oct 02:17:00 02:20:46 20° 95° (E) 02:24:30 436.795 MHz FM
AO-Echo 25 Oct 02:37:46 02:42:53 45° 99° (E) 02:47:55 ?
Sapphire 25 Oct 02:41:38 02:44:36 15° 104° (ESE) 02:47:35 437.095 MHz 1200 baud AX-25 AFSK
Oscar 16 25 Oct 02:43:37 02:48:45 78° 284° (WNW) 02:53:51 437.025 USB, Beacon 2401.1428
JAS-1B 25 Oct 02:45:51 02:52:49 83° 104° (ESE) 03:01:14 435.800 - 435.900 CW/SSB
PCSat 25 Oct 03:02:23 03:06:54 28° 107° (ESE) 03:11:25 145.825 MHz
Uribyol 2 25 Oct 03:03:28 03:08:38 65° 102° (ESE) 03:13:46 436.500 FM
ITAMSAT 1 25 Oct 03:09:30 03:14:44 71° 102° (ESE) 03:19:54 435.822 SSB
Gurwin Techsat 1B 25 Oct 03:30:18 03:35:32 57° 101° (E) 03:40:44 435.225 FM
Oscar 19 25 Oct 03:38:02 03:41:56 23° 292° (WNW) 03:45:50 437.125 CW, 437.150 USB
TMSAT-1 25 Oct 03:41:27 03:46:38 53° 100° (E) 03:51:47 436.925 FM
AO-27 25 Oct 03:55:31 04:00:20 39° 289° (WNW) 04:05:08 436.795 MHz FM
AO-Echo 25 Oct 04:17:37 04:21:13 19° 293° (WNW) 04:24:48 ?
Sapphire 25 Oct 04:22:11 04:27:28 56° 298° (WNW) 04:32:48 437.095 MHz 1200 baud AX-25 AFSK
AO-7 25 Oct 04:22:48 04:29:56 31° 98° (E) 04:37:02 29.400 - 29.500 MHz
Uosat F 25 Oct 04:24:17 04:27:27 17° 94° (E) 04:30:35 435.120 FM
JAS-1B 25 Oct 04:39:08 04:42:54 15° 295° (WNW) 04:47:00 435.800 - 435.900 CW/SSB
PCSat 25 Oct 04:45:21 04:50:08 32° 302° (WNW) 04:54:58 145.825 MHz
Uribyol 2 25 Oct 04:45:21 04:47:29 13° 296° (WNW) 04:49:37 436.500 FM
ITAMSAT 1 25 Oct 04:51:47 04:53:33 12° 296° (WNW) 04:55:19 435.822 SSB
OPAL 25 Oct 05:06:00 05:10:59 51° 71° (ENE) 05:15:56 ?
Gurwin Techsat 1B 25 Oct 05:12:05 05:14:57 15° 295° (WNW) 05:17:49 435.225 FM
TMSAT-1 25 Oct 05:22:58 05:26:03 16° 294° (WNW) 05:29:08 436.925 FM
RS-15 25 Oct 05:40:57 05:48:44 21° 38° (NE) 05:56:40 29.354 - 29.394 USB, Beacon 29.352 USB
JAS-2 25 Oct 05:58:31 06:06:03 48° 98° (E) 06:13:23 435.800 - 435.900 CW/SSB, 435.910 FM
Uosat F 25 Oct 06:01:35 06:06:21 44° 288° (WNW) 06:11:06 435.120 FM
Saudisat 1A 25 Oct 06:13:18 06:13:35 10° 107° (ESE) 06:13:53 436.775 MHz
AO-7 25 Oct 06:14:54 06:22:48 50° 293° (WNW) 06:30:42 29.400 - 29.500 MHz
PANSAT 25 Oct 06:42:46 06:45:42 21° 162° (SSE) 06:48:37 not established
OPAL 25 Oct 06:47:12 06:50:03 15° 264° (W) 06:52:54 ?
STRAND 1 25 Oct 06:50:54 06:55:53 55° 74° (ENE) 07:00:54 ?
Hamsat 25 Oct 07:00:46 07:04:56 65° 284° (WNW) 07:09:07 145.90 MHz
JAS-2 25 Oct 07:43:58 07:50:39 32° 293° (WNW) 07:57:17 435.800 - 435.900 CW/SSB, 435.910 FM
Saudisat 1A 25 Oct 07:48:17 07:52:35 58° 300° (WNW) 07:56:56 436.775 MHz
RS-15 25 Oct 07:51:52 08:03:10 77° 61° (ENE) 08:14:57 29.354 - 29.394 USB, Beacon 29.352 USB
SO-67 25 Oct 08:00:10 08:03:37 77° 101° (E) 08:07:03 435.3500 MHz FM
PANSAT 25 Oct 08:21:51 08:25:29 41° 174° (S) 08:29:06 not established
STRAND 1 25 Oct 08:32:53 08:35:20 13° 267° (W) 08:37:46 ?
HO-68 25 Oct 08:35:06 08:38:50 15° 93° (E) 08:42:34 435.675 MHz FM
MaSat-1 25 Oct 09:39:18 09:41:42 43° 66° (ENE) 09:43:58 437.345 MHz
PANSAT 25 Oct 10:01:45 10:05:23 41° 186° (S) 10:09:00 not established
RS-15 25 Oct 10:06:12 10:14:26 24° 257° (WSW) 10:22:57 29.354 - 29.394 USB, Beacon 29.352 USB
ZACube-1 25 Oct 10:10:37 10:11:35 11° 92° (E) 10:12:33 437.345 MHz
UKube-1 25 Oct 10:12:17 10:16:18 35° 99° (E) 10:20:17 145.840 MHz, 145.915 MHz
HO-68 25 Oct 10:19:53 10:27:05 78° 287° (WNW) 10:34:15 435.675 MHz FM
FUNcube-1 25 Oct 10:52:36 10:56:32 38° 98° (E) 11:00:24 145.950 - 145.970 MHz USB
Oscar 11 25 Oct 10:53:07 10:57:25 74° 283° (WNW) 11:01:42 145.825 FM, Beacon 2401.500 USB
ISS 25 Oct 11:19:02 11:21:26 19° 128° (SE) 11:23:51 145.800 FM
